Time,TemperatureF,DewpointF,PressureIn,WindDirection,WindDirectionDegrees,WindSpeedMPH,WindSpeedGustMPH,Humidity,HourlyPrecipIn,Conditions,Clouds,dailyrainin,SoftwareType,DateUTC
2013-02-20 00:07:00,63.1,49.8,30.09,North,-999,0.0,0.0,62,0.00,,,-99.99,FreeWX 2.05,2013-02-20 05:07:00,
2013-02-20 00:17:00,63.0,49.8,30.09,North,-999,0.0,0.0,62,0.00,,,-99.99,FreeWX 2.05,2013-02-20 05:17:00,
2013-02-20 00:27:00,63.1,50.4,30.09,North,-999,0.0,0.0,63,0.00,,,-99.99,FreeWX 2.05,2013-02-20 05:27:00,
2013-02-20 00:37:00,63.0,50.2,30.09,North,-999,0.0,0.0,63,0.00,,,-99.99,FreeWX 2.05,2013-02-20 05:37:00,
2013-02-20 00:47:00,63.1,50.7,30.09,North,-999,0.0,0.0,64,0.00,,,-99.99,FreeWX 2.05,2013-02-20 05:47:00,
2013-02-20 00:57:00,63.1,50.7,30.09,North,-999,0.0,0.0,64,0.00,,,-99.99,FreeWX 2.05,2013-02-20 05:57:00,
2013-02-20 01:07:00,63.0,51.1,30.09,North,-999,0.0,0.0,65,0.00,,,-99.99,FreeWX 2.05,2013-02-20 06:07:00,
2013-02-20 01:17:00,63.0,51.1,30.09,North,-999,0.0,0.0,65,0.00,,,-99.99,FreeWX 2.05,2013-02-20 06:17:00,
2013-02-20 01:27:00,63.5,52.0,30.09,North,-999,0.0,2.7,66,0.00,,,-99.99,FreeWX 2.05,2013-02-20 06:27:00,
2013-02-20 01:37:00,63.9,52.7,30.09,North,-999,0.0,3.1,67,0.00,,,-99.99,FreeWX 2.05,2013-02-20 06:37:00,
2013-02-20 01:47:00,64.0,52.9,30.09,North,-999,0.0,2.7,67,0.00,,,-99.99,FreeWX 2.05,2013-02-20 06:47:00,
2013-02-20 01:57:00,63.9,52.7,30.09,North,-999,0.0,0.0,67,0.00,,,-99.99,FreeWX 2.05,2013-02-20 06:57:00,
2013-02-20 02:07:00,63.5,52.3,30.09,North,-999,0.0,0.0,67,0.00,,,-99.99,FreeWX 2.05,2013-02-20 07:07:00,
2013-02-20 02:17:00,63.1,52.3,30.09,North,-999,0.0,0.0,68,0.00,,,-99.99,FreeWX 2.05,2013-02-20 07:17:00,
2013-02-20 02:27:00,63.5,53.1,30.09,North,-999,0.0,0.0,69,0.00,,,-99.99,FreeWX 2.05,2013-02-20 07:27:00,
2013-02-20 02:37:00,63.9,53.4,30.09,North,-999,0.0,0.0,69,0.00,,,-99.99,FreeWX 2.05,2013-02-20 07:37:00,
2013-02-20 02:47:00,63.9,53.4,30.09,North,-999,0.0,6.7,69,0.00,,,-99.99,FreeWX 2.05,2013-02-20 07:47:00,
2013-02-20 02:57:00,65.1,55.4,30.09,SE,132,2.0,5.4,71,0.00,,,-99.99,FreeWX 2.05,2013-02-20 07:57:00,
2013-02-20 03:07:00,65.3,55.2,30.09,North,-999,0.0,3.6,70,0.00,,,-99.99,FreeWX 2.05,2013-02-20 08:07:00,
2013-02-20 03:17:00,65.1,55.4,30.09,North,-999,0.0,4.0,71,0.00,,,-99.99,FreeWX 2.05,2013-02-20 08:17:00,
2013-02-20 03:27:00,64.9,55.2,30.09,North,-999,0.0,3.6,71,0.00,,,-99.99,FreeWX 2.05,2013-02-20 08:27:00,
2013-02-20 03:37:00,64.8,55.6,30.09,North,-999,0.0,4.9,72,0.00,,,-99.99,FreeWX 2.05,2013-02-20 08:37:00,
2013-02-20 03:47:00,64.8,55.6,30.09,North,-999,0.0,4.5,72,0.00,,,-99.99,FreeWX 2.05,2013-02-20 08:47:00,
2013-02-20 03:57:00,64.6,55.8,30.09,North,-999,0.0,3.6,73,0.00,,,-99.99,FreeWX 2.05,2013-02-20 08:57:00,
2013-02-20 04:07:00,64.4,55.9,30.09,North,-999,0.0,3.6,74,0.00,,,-99.99,FreeWX 2.05,2013-02-20 09:07:00,
2013-02-20 04:17:00,64.2,56.1,30.09,North,-999,0.0,4.9,75,0.00,,,-99.99,FreeWX 2.05,2013-02-20 09:17:00,
2013-02-20 04:27:00,64.0,55.9,30.09,North,-999,0.0,2.7,75,0.00,,,-99.99,FreeWX 2.05,2013-02-20 09:27:00,
2013-02-20 04:37:00,63.9,56.1,30.09,North,-999,0.0,0.0,76,0.00,,,-99.99,FreeWX 2.05,2013-02-20 09:37:00,
2013-02-20 04:47:00,63.9,56.5,30.09,North,-999,0.0,4.0,77,0.00,,,-99.99,FreeWX 2.05,2013-02-20 09:47:00,
2013-02-20 04:57:00,63.9,56.5,30.09,North,-999,0.0,4.9,77,0.00,,,-99.99,FreeWX 2.05,2013-02-20 09:57:00,
2013-02-20 05:07:00,63.9,56.8,30.09,North,-999,0.0,3.1,78,0.00,,,-99.99,FreeWX 2.05,2013-02-20 10:07:00,
2013-02-20 05:17:00,63.9,56.8,30.09,North,-999,0.0,2.7,78,0.00,,,-99.99,FreeWX 2.05,2013-02-20 10:17:00,
2013-02-20 05:27:00,63.9,57.2,30.09,North,-999,0.0,3.1,79,0.00,,,-99.99,FreeWX 2.05,2013-02-20 10:27:00,
2013-02-20 05:37:00,63.7,57.0,30.09,North,-999,0.0,4.9,79,0.00,,,-99.99,FreeWX 2.05,2013-02-20 10:37:00,
2013-02-20 05:47:00,63.7,57.0,30.09,North,-999,0.0,0.0,79,0.00,,,-99.99,FreeWX 2.05,2013-02-20 10:47:00,
2013-02-20 05:57:00,63.7,57.4,30.09,North,-999,0.0,3.1,80,0.00,,,-99.99,FreeWX 2.05,2013-02-20 10:57:00,
2013-02-20 06:07:00,63.7,57.4,30.09,North,-999,0.0,0.0,80,0.00,,,-99.99,FreeWX 2.05,2013-02-20 11:07:00,
2013-02-20 06:17:00,63.7,57.7,30.12,North,-999,0.0,3.6,81,0.00,,,-99.99,FreeWX 2.05,2013-02-20 11:17:00,
2013-02-20 06:27:00,63.7,57.7,30.12,North,-999,0.0,0.0,81,0.00,,,-99.99,FreeWX 2.05,2013-02-20 11:27:00,
2013-02-20 06:37:00,63.5,57.6,30.12,North,-999,0.0,0.0,81,0.00,,,-99.99,FreeWX 2.05,2013-02-20 11:37:00,
2013-02-20 06:47:00,63.7,57.7,30.12,North,-999,0.0,3.1,81,0.00,,,-99.99,FreeWX 2.05,2013-02-20 11:47:00,
2013-02-20 06:57:00,63.5,57.6,30.12,North,-999,0.0,0.0,81,0.00,,,-99.99,FreeWX 2.05,2013-02-20 11:57:00,
2013-02-20 07:07:00,63.5,57.9,30.12,North,-999,0.0,2.7,82,0.00,,,-99.99,FreeWX 2.05,2013-02-20 12:07:00,
2013-02-20 07:17:00,63.5,57.9,30.12,North,-999,0.0,0.0,82,0.00,,,-99.99,FreeWX 2.05,2013-02-20 12:17:00,
2013-02-20 07:27:00,63.3,57.7,30.12,North,-999,0.0,0.0,82,0.00,,,-99.99,FreeWX 2.05,2013-02-20 12:27:00,
2013-02-20 07:37:00,63.3,57.7,30.12,North,-999,0.0,0.0,82,0.00,,,-99.99,FreeWX 2.05,2013-02-20 12:37:00,
2013-02-20 07:47:00,63.3,58.1,30.12,North,-999,0.0,0.0,83,0.00,,,-99.99,FreeWX 2.05,2013-02-20 12:47:00,
2013-02-20 07:57:00,63.5,58.3,30.12,North,-999,0.0,0.0,83,0.00,,,-99.99,FreeWX 2.05,2013-02-20 12:57:00,
2013-02-20 08:07:00,63.3,58.1,30.12,North,-999,0.0,3.1,83,0.00,,,-99.99,FreeWX 2.05,2013-02-20 13:07:00,
2013-02-20 08:17:00,63.5,58.3,30.15,North,-999,0.0,2.7,83,0.00,,,-99.99,FreeWX 2.05,2013-02-20 13:17:00,
2013-02-20 08:27:00,63.5,58.3,30.15,North,-999,0.0,3.6,83,0.00,,,-99.99,FreeWX 2.05,2013-02-20 13:27:00,
2013-02-20 08:37:00,63.7,58.8,30.15,North,-999,0.0,2.7,84,0.00,,,-99.99,FreeWX 2.05,2013-02-20 13:37:00,
2013-02-20 08:47:00,63.9,59.0,30.12,North,-999,0.0,3.6,84,0.00,,,-99.99,FreeWX 2.05,2013-02-20 13:47:00,
2013-02-20 08:57:00,64.0,59.4,30.12,North,-999,0.0,3.1,85,0.00,,,-99.99,FreeWX 2.05,2013-02-20 13:57:00,
2013-02-20 09:07:00,64.2,59.5,30.12,North,-999,0.0,4.0,85,0.00,,,-99.99,FreeWX 2.05,2013-02-20 14:07:00,
2013-02-20 09:17:00,64.4,60.1,30.12,North,-999,0.0,3.6,86,0.00,,,-99.99,FreeWX 2.05,2013-02-20 14:17:00,
2013-02-20 09:27:00,64.8,60.4,30.12,North,-999,0.0,3.6,86,0.00,,,-99.99,FreeWX 2.05,2013-02-20 14:27:00,
2013-02-20 09:37:00,64.9,61.0,30.12,North,-999,0.0,4.0,87,0.00,,,-99.99,FreeWX 2.05,2013-02-20 14:37:00,
2013-02-20 09:47:00,65.1,61.2,30.12,SW,233,1.0,4.5,87,0.00,,,-99.99,FreeWX 2.05,2013-02-20 14:47:00,
2013-02-20 09:57:00,65.3,61.7,30.12,SW,236,1.0,4.0,88,0.00,,,-99.99,FreeWX 2.05,2013-02-20 14:57:00,
2013-02-20 10:07:00,65.3,61.3,30.12,WSW,237,1.0,4.9,87,0.00,,,-99.99,FreeWX 2.05,2013-02-20 15:07:00,
2013-02-20 10:17:00,65.5,61.5,30.15,SW,234,1.0,4.9,87,0.00,,,-99.99,FreeWX 2.05,2013-02-20 15:17:00,
2013-02-20 10:27:00,65.7,62.1,30.15,North,-999,0.0,3.6,88,0.00,,,-99.99,FreeWX 2.05,2013-02-20 15:27:00,
2013-02-20 10:37:00,65.7,61.7,30.15,WSW,244,1.0,4.0,87,0.00,,,-99.99,FreeWX 2.05,2013-02-20 15:37:00,
2013-02-20 10:47:00,65.8,62.2,30.15,West,267,1.0,4.0,88,0.00,,,-99.99,FreeWX 2.05,2013-02-20 15:47:00,
2013-02-20 10:57:00,65.8,61.9,30.15,West,261,2.0,4.9,87,0.00,,,-99.99,FreeWX 2.05,2013-02-20 15:57:00,
2013-02-20 11:07:00,66.4,62.4,30.15,West,263,1.0,4.9,87,0.00,,,-99.99,FreeWX 2.05,2013-02-20 16:07:00,
2013-02-20 11:17:00,66.6,62.2,30.15,WSW,242,1.0,4.0,86,0.00,,,-99.99,FreeWX 2.05,2013-02-20 16:17:00,
2013-02-20 11:27:00,66.9,61.9,30.15,WSW,250,1.0,4.5,84,0.00,,,-99.99,FreeWX 2.05,2013-02-20 16:27:00,
2013-02-20 11:37:00,66.9,61.0,30.15,WSW,249,1.0,3.6,81,0.00,,,-99.99,FreeWX 2.05,2013-02-20 16:37:00,
2013-02-20 11:47:00,67.5,60.4,30.12,North,-999,0.0,4.0,78,0.00,,,-99.99,FreeWX 2.05,2013-02-20 16:47:00,
2013-02-20 11:57:00,67.8,58.5,30.12,North,-999,0.0,3.6,72,0.00,,,-99.99,FreeWX 2.05,2013-02-20 16:57:00,
2013-02-20 12:07:00,68.0,57.4,30.12,North,-999,0.0,2.7,69,0.00,,,-99.99,FreeWX 2.05,2013-02-20 17:07:00,
2013-02-20 12:17:00,69.1,58.1,30.12,North,-999,0.0,0.0,68,0.00,,,-99.99,FreeWX 2.05,2013-02-20 17:17:00,
2013-02-20 12:27:00,69.8,57.0,30.12,North,-999,0.0,3.6,64,0.00,,,-99.99,FreeWX 2.05,2013-02-20 17:27:00,
2013-02-20 12:37:00,70.5,55.9,30.09,North,-999,0.0,4.0,60,0.00,,,-99.99,FreeWX 2.05,2013-02-20 17:37:00,
2013-02-20 12:47:00,71.6,55.0,30.09,North,-999,0.0,3.6,56,0.00,,,-99.99,FreeWX 2.05,2013-02-20 17:47:00,
2013-02-20 12:57:00,72.3,53.2,30.09,WSW,254,1.0,4.0,51,0.00,,,-99.99,FreeWX 2.05,2013-02-20 17:57:00,
2013-02-20 13:07:00,72.7,49.5,30.09,WSW,243,2.0,4.9,44,0.00,,,-99.99,FreeWX 2.05,2013-02-20 18:07:00,
2013-02-20 13:17:00,73.2,46.8,30.06,West,262,1.0,4.0,39,0.00,,,-99.99,FreeWX 2.05,2013-02-20 18:17:00,
2013-02-20 13:27:00,74.1,46.9,30.06,West,278,1.0,3.6,38,0.00,,,-99.99,FreeWX 2.05,2013-02-20 18:27:00,
2013-02-20 13:37:00,74.7,45.9,30.09,WSW,258,1.0,4.5,36,0.00,,,-99.99,FreeWX 2.05,2013-02-20 18:37:00,
2013-02-20 13:47:00,75.2,45.0,30.06,North,-999,0.0,4.0,34,0.00,,,-99.99,FreeWX 2.05,2013-02-20 18:47:00,
2013-02-20 13:57:00,76.8,46.2,30.06,WNW,293,1.0,4.9,34,0.00,,,-99.99,FreeWX 2.05,2013-02-20 18:57:00,
2013-02-20 14:07:00,77.9,46.4,30.06,East,80,2.0,5.8,33,0.00,,,-99.99,FreeWX 2.05,2013-02-20 19:07:00,
2013-02-20 14:17:00,77.4,45.1,30.06,ESE,109,1.0,6.9,32,0.00,,,-99.99,FreeWX 2.05,2013-02-20 19:17:00,
2013-02-20 14:27:00,76.6,44.6,30.06,East,93,2.0,5.4,32,0.00,,,-99.99,FreeWX 2.05,2013-02-20 19:27:00,
2013-02-20 14:37:00,76.8,44.8,30.06,SE,140,1.0,6.7,32,0.00,,,-99.99,FreeWX 2.05,2013-02-20 19:37:00,
2013-02-20 14:47:00,77.0,44.8,30.06,ESE,109,1.0,6.3,32,0.00,,,-99.99,FreeWX 2.05,2013-02-20 19:47:00,
2013-02-20 14:57:00,76.8,44.8,30.06,ESE,120,2.0,6.7,32,0.00,,,-99.99,FreeWX 2.05,2013-02-20 19:57:00,
2013-02-20 15:07:00,76.6,44.6,30.03,ESE,114,3.0,7.4,32,0.00,,,-99.99,FreeWX 2.05,2013-02-20 20:07:00,
2013-02-20 15:17:00,75.7,43.7,30.03,SE,143,2.0,6.3,32,0.00,,,-99.99,FreeWX 2.05,2013-02-20 20:17:00,
2013-02-20 15:27:00,75.0,43.2,30.03,ESE,120,2.0,6.3,32,0.00,,,-99.99,FreeWX 2.05,2013-02-20 20:27:00,
2013-02-20 15:37:00,74.3,43.3,30.03,ESE,118,3.0,7.4,33,0.00,,,-99.99,FreeWX 2.05,2013-02-20 20:37:00,
2013-02-20 15:47:00,72.9,42.1,30.06,SE,138,3.0,10.5,33,0.00,,,-99.99,FreeWX 2.05,2013-02-20 20:47:00,
2013-02-20 15:57:00,70.9,41.2,30.06,South,172,3.0,7.8,34,0.00,,,-99.99,FreeWX 2.05,2013-02-20 20:57:00,
2013-02-20 16:07:00,70.2,41.2,30.06,SSE,155,3.0,7.8,35,0.00,,,-99.99,FreeWX 2.05,2013-02-20 21:07:00,
2013-02-20 16:17:00,70.2,41.2,30.06,SSE,158,3.0,7.4,35,0.00,,,-99.99,FreeWX 2.05,2013-02-20 21:17:00,
2013-02-20 16:27:00,70.0,41.0,30.06,SSE,168,3.0,6.7,35,0.00,,,-99.99,FreeWX 2.05,2013-02-20 21:27:00,
2013-02-20 16:37:00,70.2,41.9,30.06,SE,134,3.0,9.6,36,0.00,,,-99.99,FreeWX 2.05,2013-02-20 21:37:00,
2013-02-20 16:47:00,68.9,40.1,30.09,SSW,198,2.0,5.8,35,0.00,,,-99.99,FreeWX 2.05,2013-02-20 21:47:00,
2013-02-20 16:57:00,68.7,40.6,30.09,SE,136,2.0,6.9,36,0.00,,,-99.99,FreeWX 2.05,2013-02-20 21:57:00,
2013-02-20 17:07:00,68.5,40.5,30.09,SE,135,3.0,6.7,36,0.00,,,-99.99,FreeWX 2.05,2013-02-20 22:07:00,
2013-02-20 17:17:00,68.2,40.3,30.09,SSE,147,3.0,9.6,36,0.00,,,-99.99,FreeWX 2.05,2013-02-20 22:17:00,
2013-02-20 17:27:00,67.6,39.7,30.09,South,187,2.0,6.9,36,0.00,,,-99.99,FreeWX 2.05,2013-02-20 22:27:00,
2013-02-20 17:37:00,67.3,40.1,30.09,SSE,152,1.0,5.8,37,0.00,,,-99.99,FreeWX 2.05,2013-02-20 22:37:00,
2013-02-20 17:47:00,66.9,40.5,30.09,SE,134,1.0,6.7,38,0.00,,,-99.99,FreeWX 2.05,2013-02-20 22:47:00,
2013-02-20 17:57:00,66.6,40.8,30.09,North,-999,0.0,4.5,39,0.00,,,-99.99,FreeWX 2.05,2013-02-20 22:57:00,
2013-02-20 18:07:00,66.4,41.4,30.06,North,-999,0.0,0.0,40,0.00,,,-99.99,FreeWX 2.05,2013-02-20 23:07:00,
2013-02-20 18:17:00,66.0,41.0,30.09,North,-999,0.0,0.0,40,0.00,,,-99.99,FreeWX 2.05,2013-02-20 23:17:00,
2013-02-20 18:27:00,65.8,40.8,30.09,North,-999,0.0,3.6,40,0.00,,,-99.99,FreeWX 2.05,2013-02-20 23:27:00,
2013-02-20 18:37:00,65.8,41.5,30.09,North,-999,0.0,0.0,41,0.00,,,-99.99,FreeWX 2.05,2013-02-20 23:37:00,
2013-02-20 18:47:00,65.7,40.6,30.09,North,-999,0.0,4.5,40,0.00,,,-99.99,FreeWX 2.05,2013-02-20 23:47:00,
2013-02-20 18:57:00,65.5,40.5,30.09,North,-999,0.0,0.0,40,0.00,,,-99.99,FreeWX 2.05,2013-02-20 23:57:00,
2013-02-20 19:07:00,65.1,40.8,30.09,North,-999,0.0,0.0,41,0.00,,,-99.99,FreeWX 2.05,2013-02-21 00:07:00,
2013-02-20 19:17:00,64.8,40.5,30.09,North,-999,0.0,2.7,41,0.00,,,-99.99,FreeWX 2.05,2013-02-21 00:17:00,
2013-02-20 19:27:00,64.4,40.1,30.09,North,-999,0.0,0.0,41,0.00,,,-99.99,FreeWX 2.05,2013-02-21 00:27:00,
2013-02-20 19:37:00,64.2,40.6,30.09,North,-999,0.0,0.0,42,0.00,,,-99.99,FreeWX 2.05,2013-02-21 00:37:00,
2013-02-20 19:47:00,63.9,40.3,30.09,North,-999,0.0,0.0,42,0.00,,,-99.99,FreeWX 2.05,2013-02-21 00:47:00,
2013-02-20 19:57:00,63.5,40.6,30.09,North,-999,0.0,2.7,43,0.00,,,-99.99,FreeWX 2.05,2013-02-21 00:57:00,
2013-02-20 20:07:00,63.5,41.2,30.09,North,-999,0.0,0.0,44,0.00,,,-99.99,FreeWX 2.05,2013-02-21 01:07:00,
2013-02-20 20:17:00,63.1,40.8,30.09,North,-999,0.0,0.0,44,0.00,,,-99.99,FreeWX 2.05,2013-02-21 01:17:00,
2013-02-20 20:38:00,63.0,40.6,30.09,North,-999,0.0,0.0,44,0.00,,,-99.99,FreeWX 2.05,2013-02-21 01:38:00,
2013-02-20 20:48:00,63.0,40.6,30.09,North,-999,0.0,0.0,44,0.00,,,-99.99,FreeWX 2.05,2013-02-21 01:48:00,
2013-02-20 20:58:00,62.6,40.5,30.12,North,-999,0.0,2.7,44,0.00,,,-99.99,FreeWX 2.05,2013-02-21 01:58:00,
2013-02-20 21:08:00,62.4,40.3,30.12,North,-999,0.0,0.0,44,0.00,,,-99.99,FreeWX 2.05,2013-02-21 02:08:00,
2013-02-20 21:18:00,62.2,40.1,30.12,North,-999,0.0,0.0,44,0.00,,,-99.99,FreeWX 2.05,2013-02-21 02:18:00,
2013-02-20 21:28:00,61.9,39.7,30.12,North,-999,0.0,0.0,44,0.00,,,-99.99,FreeWX 2.05,2013-02-21 02:28:00,
2013-02-20 21:38:00,61.7,39.6,30.12,North,-999,0.0,0.0,44,0.00,,,-99.99,FreeWX 2.05,2013-02-21 02:38:00,
2013-02-20 21:48:00,61.3,39.2,30.12,North,-999,0.0,0.0,44,0.00,,,-99.99,FreeWX 2.05,2013-02-21 02:48:00,
2013-02-20 21:58:00,61.2,39.6,30.12,North,-999,0.0,0.0,45,0.00,,,-99.99,FreeWX 2.05,2013-02-21 02:58:00,
2013-02-20 22:08:00,61.2,39.6,30.12,North,-999,0.0,0.0,45,0.00,,,-99.99,FreeWX 2.05,2013-02-21 03:08:00,
2013-02-20 22:18:00,61.0,39.6,30.12,North,-999,0.0,0.0,45,0.00,,,-99.99,FreeWX 2.05,2013-02-21 03:18:00,
2013-02-20 22:28:00,60.8,39.4,30.12,North,-999,0.0,0.0,45,0.00,,,-99.99,FreeWX 2.05,2013-02-21 03:28:00,
2013-02-20 22:38:00,60.8,39.9,30.12,North,-999,0.0,0.0,46,0.00,,,-99.99,FreeWX 2.05,2013-02-21 03:38:00,
2013-02-20 22:48:00,60.8,39.9,30.12,North,-999,0.0,0.0,46,0.00,,,-99.99,FreeWX 2.05,2013-02-21 03:48:00,
2013-02-20 22:58:00,60.6,39.7,30.09,North,-999,0.0,0.0,46,0.00,,,-99.99,FreeWX 2.05,2013-02-21 03:58:00,
2013-02-20 23:18:00,60.3,39.9,30.09,North,-999,0.0,0.0,47,0.00,,,-99.99,FreeWX 2.05,2013-02-21 04:18:00,
2013-02-20 23:28:00,60.1,39.7,30.09,North,-999,0.0,0.0,47,0.00,,,-99.99,FreeWX 2.05,2013-02-21 04:28:00,
2013-02-20 23:38:00,59.9,40.1,30.09,North,-999,0.0,0.0,48,0.00,,,-99.99,FreeWX 2.05,2013-02-21 04:38:00,
2013-02-20 23:48:00,59.9,40.1,30.09,North,-999,0.0,0.0,48,0.00,,,-99.99,FreeWX 2.05,2013-02-21 04:48:00,
2013-02-20 23:58:00,59.7,39.9,30.06,North,-999,0.0,0.0,48,0.00,,,-99.99,FreeWX 2.05,2013-02-21 04:58:00,